Weather in Naddnistrianske

Ukraine / Vinnytsia Region     48°38′40″N   27°25′24″E
temp.,
°C
wind,
m/s
gust,
m/s
humid.,
%
clouds,
%
prec.,
mm/h
press.,
hPa
HPBL,
m
18 january, tue
tue1823:00−2wnw11198099 0.0 10071337
02:00−2nw121983100 0.3 10091318
05:00−2nw1221675 0.1 10131342
08:00−3nw111963100 0.1 10171212
11:00−1nw11177492 0.0 10181758
14:000nnw1117675 0.3 10191726
17:00−2nnw10176445 0.1 10221327
20:00−3nnw9176513 0.1 10251285
19 january, wed
wed1923:00−4nnw814695 0.0 10271003
02:00−4nnw713755 0.0 1029729
05:00−5nw6138057 0.0 1029501
08:00−5nw51083100 0.0 1030402
11:00−2nw597351 0.0 1029558
14:00−1wnw5674100 0.0 1026665
17:00−2wsw22835 0.0 102516
20:00−3sw23835 0.0 102346
20 january, thu
thu2023:00
02:00−3s3473100 0.0 101962
05:00−4s355871 0.0 101689
08:00
11:00−1sw235225 0.0 1012245
14:00+2sw224594 0.0 1009370
17:000sw3656100 0.1 1009174
20:00−1sw2290100 0.5 100864
21 january, fri
fri2123:00−2w3593100 0.3 1008116
02:00−2w51174100 0.5 1010803
05:00−3wnw7137675 0.0 1010833
08:00−4w61371100 0.0 1011734
11:00−1wnw71277100 0.1 10131131
14:00−1wnw8126777 0.1 10131260
17:00−3wnw7137385 0.0 1014827
20:00−4wnw7147894 0.0 1014803
22 january, sat
sat2223:00−4wnw81273100 0.0 1015855
02:00−4w6128092 0.0 1014639
05:00−4w6128399 0.0 1014797
08:00−4w7128099 0.1 1015735
11:00−3w71176100 0.1 1016955
14:00−2wnw6872100 0.2 10161021
17:00−4wnw487954 0.1 1017297
20:00−4nw488899 0.1 1019455